This is the latest recevied weather packets stored in our database for station/object K9RCP-20. If no packets are shown the sender has not sent any weather packets the latest 10 day(s).
| Time | Temp. | Humidity | Pressure | Rain* | Wind** | Luminosity | Snow |
|---|---|---|---|---|---|---|---|
| 1778271249 | 17.78° C | 53% | 1019.2 hPa | 0 mm | - | 753 W/m² | - |
| 1778270945 | 17.22° C | 51% | 1019.3 hPa | 0 mm | - | 769 W/m² | - |
| 1778270642 | 17.78° C | 53% | 1019.3 hPa | 0 mm | - | 786 W/m² | - |
| 1778270337 | 17.22° C | 53% | 1019.4 hPa | 0 mm | - | 753 W/m² | - |
| 1778270034 | 17.22° C | 54% | 1019.4 hPa | 0 mm | - | 747 W/m² | - |
| 1778269731 | 17.22° C | 54% | 1019.3 hPa | 0 mm | - | 743 W/m² | - |
| 1778269428 | 16.67° C | 53% | 1019.6 hPa | 0 mm | - | 768 W/m² | - |
| 1778269125 | 17.78° C | 53% | 1019.4 hPa | 0 mm | - | 759 W/m² | - |
| 1778268822 | 16.67° C | 54% | 1019.5 hPa | 0 mm | - | 787 W/m² | - |
| 1778268518 | 17.22° C | 58% | 1019.4 hPa | 0 mm | - | 836 W/m² | - |
| 1778268215 | 17.22° C | 55% | 1019.6 hPa | 0 mm | - | 798 W/m² | - |
| 1778267912 | 17.22° C | 56% | 1019.4 hPa | 0 mm | - | 879 W/m² | - |
| 1778267610 | 17.22° C | 54% | 1019.6 hPa | 0 mm | - | 883 W/m² | - |
| 1778267307 | 16.67° C | 60% | 1019.4 hPa | 0 mm | - | 347 W/m² | - |
| 1778267003 | 17.22° C | 57% | 1019.6 hPa | 0 mm | - | 633 W/m² | - |
| 1778266699 | 17.22° C | 57% | 1019.6 hPa | 0 mm | - | 633 W/m² | - |
| 1778266397 | 16.11° C | 61% | 1019.6 hPa | 0 mm | - | 908 W/m² | - |
| 1778266094 | 15.56° C | 59% | 1019.5 hPa | 0 mm | - | 959 W/m² | - |
| 1778265791 | 15° C | 62% | 1019.6 hPa | 0 mm | - | 428 W/m² | - |
| 1778265482 | 15° C | 63% | 1019.8 hPa | 0 mm | - | 274 W/m² | - |
| 1778265179 | 16.11° C | 60% | 1019.6 hPa | 0 mm | - | 284 W/m² | - |
| 1778264874 | 15.56° C | 61% | 1019.7 hPa | 0 mm | - | 374 W/m² | - |
| 1778264571 | 15° C | 60% | 1019.7 hPa | 0 mm | - | 567 W/m² | - |
| 1778264267 | 14.44° C | 61% | 1019.5 hPa | 0 mm | - | 363 W/m² | - |
| 1778263964 | 14.44° C | 64% | 1019.7 hPa | 0 mm | - | 347 W/m² | - |
* Rain latest hour (hover to see other rain measurements)
** Current wind speed in m/s (hover to see current wind gust speed)